Tucson Davis Monthan, AZ

8:31 PM MST on June 24, 2018 (GMT -0700)
Davis-Monthan Air Force Base

Weather History for KDMA - December, 2017

Change the Weather History Date:

Friday, December 29, 2017

  Actual Average Record
Temperature  
Mean Temperature 62 °F -  
Max Temperature 82 °F 61 °F 82 °F (2017)
Min Temperature 43 °F 37 °F 20 °F (1988)
Degree Days  
Heating Degree Days 2    
Growing Degree Days 12 (Base 50)    
Moisture  
Dew Point 18 °F    
Average Humidity 22    
Maximum Humidity 38    
Minimum Humidity 8    
Precipitation  
Precipitation 0.00 in - - ()
Sea Level Pressure  
Sea Level Pressure 30.10 in    
Wind  
Wind Speed 5 mph (SE)    
Max Wind Speed 12 mph    
Max Gust Speed -    
Visibility 10 miles    
Events      
Averages and records for this station are not official NWS values.
T = Trace of Precipitation, MM = Missing Value Source: NWS Daily Summary

Daily Weather History Graph

Daily Weather History Graph

Search for Another Location

Airport or City:

Astronomy

Dec. 29, 2017 Rise Set
Actual Time 7:23 AM MST 5:27 PM MST
Civil Twilight 6:56 AM MST 5:54 PM MST
Nautical Twilight 6:26 AM MST 6:25 PM MST
Astronomical Twilight 5:56 AM MST 6:55 PM MST
Moon 2:44 PM MST (12/29) 3:23 AM MST (12/29)
Length of Visible Light 10h 58m
Length of Day
10h 04m
Waxing Gibbous, 84% of the Moon is Illuminated
Dec 29
Waxing Gibbous
Jan 1
Full
Jan 8
Last Quarter
Jan 16
New
Jan 24
First Quarter

Hourly Weather History & Observations

Time (MST) Temp. Windchill Dew Point Humidity Pressure Visibility Wind Dir Wind Speed Gust Speed Precip Events Conditions
12:58 AM 48.9 °F - 18.9 °F 30% 30.10 in 10.0 mi Calm Calm - N/A   Clear
1:58 AM 47.5 °F - 18.3 °F 31% 30.10 in 10.0 mi SE 11.5 mph - N/A   Clear
2:58 AM 48.7 °F - 18.0 °F 29% 30.09 in 10.0 mi South 4.6 mph - N/A   Clear
3:58 AM 44.6 °F 41.4 °F 18.7 °F 36% 30.09 in 10.0 mi SE 5.8 mph - N/A   Clear
4:58 AM 43.2 °F 38.4 °F 19.2 °F 38% 30.09 in 10.0 mi SSE 8.1 mph - N/A   Clear
5:58 AM 48.4 °F - 17.6 °F 29% 30.11 in 10.0 mi SE 5.8 mph - N/A   Clear
6:58 AM 48.0 °F - 18.0 °F 30% 30.14 in 10.0 mi SE 6.9 mph - N/A   Clear
7:58 AM 50.4 °F - 17.6 °F 27% 30.15 in 10.0 mi SE 9.2 mph - N/A   Clear
8:58 AM 52.5 °F - 19.4 °F 27% 30.17 in 10.0 mi SE 3.5 mph - N/A   Clear
9:58 AM 63.9 °F - 19.6 °F 18% 30.17 in 10.0 mi SE 8.1 mph - N/A   Clear
10:58 AM 68.9 °F - 19.4 °F 15% 30.16 in 10.0 mi ESE 5.8 mph - N/A   Clear
11:58 AM 73.9 °F - 18.1 °F 12% 30.12 in 10.0 mi ESE 4.6 mph - N/A   Clear
12:58 PM 80.4 °F - 16.3 °F 9% 30.06 in 10.0 mi NNE 4.6 mph - N/A   Clear
1:58 PM 81.7 °F - 14.5 °F 8% 30.04 in 10.0 mi NW 3.5 mph - N/A   Clear
2:58 PM 82.8 °F - 15.4 °F 8% 30.03 in 10.0 mi NW 4.6 mph - N/A   Clear
3:58 PM 80.8 °F - 14.0 °F 8% 30.04 in 10.0 mi NW 4.6 mph - N/A   Clear
4:58 PM 77.4 °F - 16.5 °F 10% 30.04 in 10.0 mi WNW 4.6 mph - N/A   Clear
5:58 PM 68.7 °F - 19.2 °F 15% 30.06 in 10.0 mi NW 8.1 mph - N/A   Clear
6:58 PM 60.8 °F - 17.1 °F 18% 30.10 in 10.0 mi Calm Calm - N/A   Clear
7:58 PM 56.3 °F - 19.0 °F 23% 30.11 in 10.0 mi South 5.8 mph - N/A   Clear
8:58 PM 53.8 °F - 21.4 °F 28% 30.12 in 10.0 mi SSE 8.1 mph - N/A   Clear
9:58 PM 50.9 °F - 19.8 °F 29% 30.12 in 10.0 mi SE 10.4 mph - N/A   Clear
10:58 PM 49.8 °F - 18.0 °F 28% 30.11 in 10.0 mi SE 9.2 mph - N/A   Clear
11:58 PM 46.9 °F - 18.7 °F 33% 30.10 in 10.0 mi SSE 9.2 mph - N/A   Clear